[[{"header":{"parameterUnit":"m.s-1","parameterCategory":1,"la1":30.2991,"la2":30.254,"lo1":-89.0895,"lo2":-89.0444,"dy":0.0017,"dx":0.0017,"nx":28,"ny":28,"refTime":"2024-03-07T09:00:00:Z","depth":0,"parameterNumber":2,"parameterNumberName":"U-component_of_WINDS"},"data":[0,0,0,0,0,0,0,0,0,0,0,0,0,0,0,0,0,0,0,0,0,0,0,0,0,0,0,0,0,0,0,0,0,0,0,0,0,0,0,0,0,0,0,0,0,0,0,0,0,0,0,0,0,0,0,0,0,0,-3.6726,-3.6727,0,-3.6889,-3.6891,-3.6893,-3.6971,-3.6971,-3.6971,-3.697,-3.7137,-3.7141,-3.7145,0,0,0,0,0,0,0,0,0,0,0,0,0,-3.6479,-3.6483,-3.6725,-3.6728,-3.673,-3.6889,-3.6891,-3.6893,-3.6971,-3.6971,-3.6971,-3.697,-3.7135,-3.714,-3.7146,0,0,0,0,0,0,0,0,0,0,0,0,0,-3.6609,-3.6485,-3.6725,-3.6788,-3.6795,-3.6888,-3.6891,-3.6894,-3.6971,-3.6971,-3.697,-3.697,-3.7133,-3.714,-3.7146,-3.719,0,0,-3.7167,-3.717,0,0,0,0,0,0,0,0,-3.6601,-3.6618,-3.6776,-3.6783,-3.6792,-3.6909,-3.6865,-3.6993,-3.6971,-3.6904,-3.697,-3.697,-3.7061,-3.7074,-3.7104,-3.7197,-3.7205,-3.7168,-3.7172,-3.7175,-3.7176,0,0,0,0,0,0,0,-3.6592,-3.6611,-3.679,-3.6778,-3.6788,-3.6807,-3.6825,-3.689,-3.6981,-3.691,-3.6916,-3.6934,-3.7065,-3.7098,-3.7109,-3.7207,-3.7167,-3.7173,-3.7177,-3.718,-3.7344,-3.7344,0,0,0,0,0,0,-3.6573,-3.6603,-3.6785,-3.6795,-3.6694,-3.6811,-3.6832,-3.6872,-3.698,-3.6997,-3.6934,-3.6937,-3.7086,-3.7101,-3.7115,-3.7173,-3.7174,-3.7181,-3.7185,-3.7343,-3.7344,-3.7344,0,0,0,0,0,0,-3.6568,-3.6589,-3.6778,-3.6701,-3.6726,-3.6816,-3.686,-3.6875,-3.6908,-3.6999,-3.7015,-3.6951,-3.7087,-3.7106,-3.7171,-3.718,-3.7184,-3.719,-3.7343,-3.7344,-3.7344,-3.7289,0,0,0,0,0,0,-3.656,-3.6586,-3.6604,-3.6701,-3.673,-3.6832,-3.686,-3.6878,-3.6919,-3.6925,-3.7019,-3.7034,-3.7088,-3.716,-3.7177,-3.7189,-3.7195,-3.7343,-3.7343,-3.7344,-3.7291,-3.7288,-3.7285,0,0,0,0,0,-3.6551,-3.6582,-3.6605,-3.6626,-3.6754,-3.6832,-3.6849,-3.6911,-3.692,-3.6938,-3.6996,-3.7031,-3.7176,-3.7166,-3.7186,-3.72,-3.7342,-3.7343,-3.7344,-3.7292,-3.7288,-3.7285,0,0,0,0,0,0,-3.6484,-3.6596,-3.6622,-3.6685,-3.6748,-3.6845,-3.687,-3.6905,-3.6967,-3.6969,-3.7043,-3.7063,-3.7122,-3.7168,-3.7155,-3.7248,-3.7262,-3.7267,-3.7216,-3.7213,-3.7211,-3.7199,-3.7201,0,0,0,0,0,-3.6477,-3.6531,-3.6625,-3.6672,-3.6702,-3.678,-3.6816,-3.6858,-3.6927,-3.6954,-3.7017,-3.7082,-3.7142,-3.718,-3.724,-3.7297,-3.7319,-3.7317,-3.7314,-3.7311,-3.7315,-3.7348,-3.7348,-3.7346,-3.7346,-3.7346,0,0,-3.6462,-3.653,-3.6559,-3.666,-3.6714,-3.6768,-3.6803,-3.6858,-3.6899,-3.6962,-3.7028,-3.7076,-3.7153,-3.7214,-3.7244,-3.7254,-3.732,-3.7312,-3.7309,-3.7315,-3.7349,-3.7349,-3.7349,-3.7347,-3.7347,-3.7347,0,0,-3.6463,-3.6519,-3.6565,-3.6618,-3.6699,-3.6751,-3.6761,-3.6852,-3.6887,-3.6954,-3.7003,-3.7052,-3.7154,-3.7207,-3.7247,-3.7266,-3.7301,-3.7284,-3.727,-3.7302,-3.7302,-3.7303,-3.731,-3.7312,-3.7287,-3.7286,-3.7286,0,-3.6434,-3.6518,-3.6583,-3.6636,-3.6679,-3.6739,-3.6784,-3.6833,-3.6929,-3.6957,-3.6966,-3.7095,-3.7152,-3.7226,-3.723,-3.7261,-3.7275,-3.7274,-3.7297,-3.7298,-3.73,-3.7307,-3.731,-3.7284,-3.7284,-3.7285,-3.7285,0,-3.6479,-3.6536,-3.6563,-3.6655,-3.67,-3.6749,-3.6821,-3.6859,-3.6896,-3.6946,-3.7013,-3.7083,-3.7158,-3.7178,-3.7216,-3.7258,-3.7262,-3.7283,-3.7299,-3.7296,-3.7305,-3.7308,-3.728,-3.7281,-3.7282,-3.7283,0,0,-3.6444,-3.657,-3.6579,-3.6621,-3.6715,-3.676,-3.6811,-3.6885,-3.6916,-3.698,-3.7025,-3.7109,-3.713,-3.7175,-3.7218,-3.7246,-3.7257,-3.7264,-3.7267,-3.7261,-3.7309,-3.7293,-3.7295,-3.728,-3.7281,-3.7282,-3.7302,0,-3.6458,-3.6554,-3.6613,-3.6684,-3.6738,-3.6794,-3.6839,-3.6901,-3.6949,-3.7001,-3.7054,-3.7113,-3.7135,-3.7162,-3.7192,-3.725,-3.7268,-3.7249,-3.7323,-3.7325,-3.7303,-3.73,-3.7283,-3.7299,-3.7306,-3.7307,-3.7307,0,-3.6488,-3.6551,-3.6628,-3.6715,-3.6739,-3.6778,-3.6851,-3.6899,-3.697,-3.7003,-3.7053,-3.7097,-3.7153,-3.7164,-3.7242,-3.7228,-3.7261,-3.7294,-3.7296,-3.7306,-3.7316,-3.731,-3.7306,-3.7308,-3.7313,-3.7313,-3.7312,0,-3.6455,-3.6559,-3.6618,-3.6652,-3.6755,-3.6781,-3.6825,-3.6896,-3.6937,-3.6999,-3.7026,-3.7094,-3.7132,-3.7183,-3.7244,-3.7246,-3.7316,-3.7332,-3.7346,-3.7344,-3.7359,-3.7357,-3.736,-3.7378,-3.7378,-3.7378,-3.7378,0,-3.6466,-3.6511,-3.6605,-3.6641,-3.6693,-3.676,-3.6809,-3.6857,-3.6919,-3.6966,-3.7019,-3.7061,-3.7139,-3.7191,-3.7238,-3.7296,-3.7312,-3.7341,-3.7353,-3.7337,-3.7333,-3.736,-3.7361,-3.7379,-3.7379,-3.7379,-3.7379,0,-3.6439,-3.6503,-3.6572,-3.6663,-3.6687,-3.6721,-3.6799,-3.6836,-3.6887,-3.6945,-3.6962,-3.7042,-3.7105,-3.7171,-3.7257,-3.7289,-3.7346,-3.7362,-3.7322,-3.7329,-3.7339,-3.7337,-3.736,-3.7367,-3.7379,-3.7379,-3.7379,0,-3.6441,-3.6477,-3.6572,-3.6607,-3.665,-3.6706,-3.6747,-3.6814,-3.6855,-3.6938,-3.6965,-3.7032,-3.709,-3.7189,-3.7255,-3.7321,-3.734,-3.7343,-3.735,-3.7332,-3.7341,-3.7338,-3.7342,-3.7341,-3.7341,-3.734,-3.734,0,-3.644,-3.647,-3.6528,-3.6596,-3.6644,-3.6701,-3.6761,-3.6786,-3.6864,-3.6907,-3.6973,-3.7018,-3.7106,-3.7173,-3.7246,-3.7292,-3.7329,-3.7337,-3.7344,-3.7328,-3.7303,-3.7317,-3.7316,-3.7336,-3.7337,-3.7337,-3.7337,-3.7337,-3.6428,-3.6463,-3.6535,-3.6597,-3.6648,-3.6702,-3.6742,-3.6797,-3.6853,-3.693,-3.6966,-3.7031,-3.7101,-3.7204,-3.7248,-3.7301,-3.7311,-3.7321,-3.7324,-3.7325,-3.7321,-3.7294,-3.7314,-3.7315,-3.7315,-3.7315,-3.7315,0,-3.643,-3.6479,-3.6535,-3.6616,-3.6665,-3.6695,-3.6762,-3.6801,-3.6859,-3.692,-3.6976,-3.7051,-3.7116,-3.7186,-3.7254,-3.7283,-3.7302,-3.7299,-3.7298,-3.7308,-3.7308,-3.7295,-3.7283,-3.7283,-3.7283,-3.7283,-3.7283,-3.7283,-3.6437,-3.6496,-3.6534,-3.662,-3.6668,-3.6733,-3.6769,-3.6819,-3.6868,-3.695,-3.7004,-3.7049,-3.7114,-3.7188,-3.7248,-3.7267,-3.7291,-3.7283,-3.7306,-3.7305,-3.7308,-3.731,-3.7299,-3.7287,-3.7287,-3.7302,-3.7303,-3.7303]},{"header":{"parameterUnit":"m.s-1","parameterCategory":1,"la1":30.2991,"la2":30.254,"lo1":-89.0895,"lo2":-89.0444,"dy":0.0017,"dx":0.0017,"nx":28,"ny":28,"refTime":"2024-03-07T09:00:00:Z","depth":0,"parameterNumber":3,"parameterNumberName":"V-component_of_WINDS"},"data":[0,0,0,0,0,0,0,0,0,0,0,0,0,0,0,0,0,0,0,0,0,0,0,0,0,0,0,0,0,0,0,0,0,0,0,0,0,0,0,0,0,0,0,0,0,0,0,0,0,0,0,0,0,0,0,0,0,0,6.4126,6.4126,0,6.4162,6.4162,6.4162,6.4088,6.4085,6.4083,6.408,6.4112,6.4115,6.4118,0,0,0,0,0,0,0,0,0,0,0,0,0,6.399,6.3992,6.4126,6.4126,6.4127,6.4162,6.4162,6.4162,6.4088,6.4085,6.4082,6.4079,6.4111,6.4115,6.4119,0,0,0,0,0,0,0,0,0,0,0,0,0,6.4039,6.3993,6.4126,6.4094,6.4091,6.4161,6.4162,6.4163,6.4089,6.4085,6.4081,6.4078,6.411,6.4115,6.4119,6.422,0,0,6.4133,6.4135,0,0,0,0,0,0,0,0,6.4037,6.4044,6.4098,6.4096,6.4093,6.4116,6.4126,6.4182,6.409,6.4089,6.408,6.4076,6.4116,6.412,6.4135,6.4222,6.4223,6.4134,6.4137,6.4139,6.414,0,0,0,0,0,0,0,6.4033,6.4042,6.414,6.4099,6.4096,6.4077,6.408,6.4136,6.4123,6.4089,6.4084,6.4089,6.4114,6.413,6.4135,6.4224,6.4134,6.4138,6.4141,6.4142,6.44,6.4404,0,0,0,0,0,0,6.4034,6.404,6.4138,6.4141,6.4056,6.4082,6.4085,6.4113,6.4122,6.412,6.4092,6.4086,6.4124,6.413,6.4136,6.4259,6.4139,6.4143,6.4146,6.4396,6.4401,6.4406,0,0,0,0,0,0,6.4032,6.4044,6.4137,6.4089,6.4099,6.4088,6.4119,6.4115,6.4131,6.4124,6.4121,6.4112,6.4122,6.4129,6.4201,6.4259,6.4145,6.4149,6.4392,6.4398,6.4403,6.4505,0,0,0,0,0,0,6.4028,6.4043,6.4082,6.4091,6.4102,6.4203,6.4123,6.4119,6.414,6.4132,6.4142,6.414,6.4119,6.4195,6.4206,6.4264,6.4153,6.4386,6.4394,6.4402,6.4496,6.4514,6.4528,0,0,0,0,0,6.4024,6.4107,6.4085,6.4097,6.4151,6.4207,6.4213,6.419,6.4145,6.4185,6.418,6.4139,6.425,6.4203,6.4215,6.4275,6.4383,6.4392,6.4401,6.4489,6.451,6.4528,0,0,0,0,0,0,6.4103,6.4108,6.4083,6.4172,6.419,6.4194,6.4243,6.4212,6.4242,6.4233,6.42,6.4203,6.4283,6.4284,6.4232,6.4375,6.4309,6.4321,6.4372,6.4392,6.4408,6.4407,6.4157,0,0,0,0,0,6.4132,6.4178,6.4178,6.4257,6.4267,6.4254,6.4277,6.4258,6.4274,6.4281,6.4282,6.4299,6.4338,6.4364,6.4399,6.4495,6.4498,6.4542,6.4558,6.4571,6.4583,6.4639,6.466,6.4436,6.4436,6.4435,0,0,6.419,6.4198,6.4229,6.4273,6.4285,6.4334,6.4261,6.4314,6.435,6.4288,6.4359,6.436,6.4376,6.4463,6.45,6.4467,6.4645,6.4583,6.4593,6.4598,6.4651,6.4672,6.4691,6.4442,6.4441,6.444,0,0,6.4323,6.4332,6.4401,6.4415,6.4435,6.4426,6.4443,6.4452,6.4452,6.4522,6.4479,6.4519,6.4586,6.4602,6.4618,6.4759,6.4725,6.4771,6.4857,6.4911,6.4929,6.4945,6.5,6.502,6.4782,6.4782,6.4782,0,6.4393,6.4466,6.444,6.4499,6.4521,6.4469,6.454,6.4554,6.4583,6.46,6.4561,6.4648,6.4654,6.4746,6.4781,6.4794,6.4814,6.4772,6.4929,6.4944,6.4958,6.5011,6.5031,6.4788,6.4788,6.4787,6.4786,0,6.4554,6.4605,6.4658,6.4693,6.472,6.4784,6.4767,6.4798,6.4776,6.4771,6.4845,6.4851,6.4889,6.4908,6.4885,6.4998,6.4977,6.4934,6.4868,6.4986,6.5035,6.5055,6.4797,6.4795,6.4793,6.4791,0,0,6.4739,6.476,6.478,6.4798,6.4816,6.4856,6.4917,6.4957,6.4986,6.5007,6.5061,6.5119,6.5081,6.51,6.5078,6.5126,6.5244,6.5078,6.5078,6.5113,6.5373,6.541,6.5433,6.5219,6.5223,6.5226,6.5374,0,6.4875,6.4986,6.4965,6.5072,6.5122,6.5074,6.5128,6.5146,6.5143,6.5183,6.5178,6.5223,6.5167,6.5179,6.5223,6.5221,6.5297,6.5208,6.5271,6.5273,6.5274,6.5458,6.5495,6.5635,6.5392,6.5395,6.5397,0,6.5049,6.5082,6.5196,6.5212,6.5232,6.5281,6.5318,6.5357,6.5376,6.537,6.5393,6.5364,6.5426,6.5356,6.5443,6.5384,6.5407,6.5409,6.5414,6.5423,6.5346,6.5477,6.5678,6.5702,6.5426,6.5424,6.5422,0,6.518,6.5252,6.5331,6.5346,6.5364,6.5401,6.541,6.5426,6.5453,6.5483,6.5501,6.5537,6.5558,6.5587,6.5568,6.5518,6.566,6.5587,6.566,6.5661,6.5695,6.5694,6.5909,6.5702,6.5701,6.5701,6.5701,0,6.5337,6.541,6.5391,6.544,6.5521,6.5495,6.5575,6.5578,6.5593,6.5642,6.56,6.5646,6.5616,6.566,6.5645,6.5723,6.573,6.5729,6.5725,6.5736,6.5738,6.5755,6.5747,6.5707,6.5705,6.5704,6.5703,0,6.5499,6.5489,6.5573,6.5585,6.5589,6.5649,6.5658,6.5704,6.5698,6.5761,6.5774,6.5764,6.5814,6.5798,6.5849,6.584,6.594,6.592,6.5935,6.5932,6.6008,6.6003,6.6246,6.6278,6.6045,6.6047,6.6049,0,6.5603,6.5659,6.5678,6.571,6.5723,6.5773,6.5801,6.5777,6.5808,6.5836,6.5879,6.5926,6.5963,6.6045,6.6042,6.6083,6.6067,6.6149,6.6073,6.6084,6.6075,6.6075,6.6082,6.6166,6.6169,6.6171,6.6173,0,6.5791,6.5784,6.5827,6.587,6.5906,6.5937,6.5965,6.5992,6.597,6.6007,6.606,6.6088,6.6144,6.6192,6.6229,6.6237,6.6204,6.6196,6.6216,6.6231,6.624,6.6242,6.5983,6.6192,6.619,6.6189,6.6188,6.6187,6.593,6.598,6.6003,6.6054,6.6073,6.61,6.6146,6.6147,6.6191,6.6238,6.6219,6.6281,6.63,6.6347,6.6361,6.6408,6.6377,6.6404,6.6412,6.6421,6.6434,6.6228,6.6414,6.6413,6.6412,6.6412,6.6412,0,6.6121,6.6134,6.6181,6.6224,6.6264,6.6228,6.6258,6.6294,6.635,6.6372,6.641,6.6472,6.6519,6.6521,6.6565,6.6603,6.6589,6.6616,6.6615,6.6619,6.6456,6.6437,6.6627,6.6627,6.6627,6.6627,6.6627,6.6627,6.6226,6.631,6.6306,6.6399,6.641,6.6473,6.6494,6.6519,6.6538,6.661,6.665,6.6651,6.6666,6.6711,6.6753,6.6752,6.6773,6.6808,6.6802,6.6651,6.6629,6.6609,6.6592,6.6811,6.6811,6.6961,6.6962,6.6963]}]]